Canyon City, OR

11:49 AM PDT on August 26, 2016 (GMT -0700)
Grant County Regional

Weather History for KGCD - December, 2012

Change the Weather History Date:

Sunday, December 9, 2012

  Actual Average (KBNO) Record (KBNO)
Temperature  
Mean Temperature 31 °F 25 °F  
Max Temperature 32 °F 35 °F 54 °F (1981)
Min Temperature 30 °F 15 °F -26 °F (1972)
Degree Days  
Heating Degree Days 34 40  
Month to date heating degree days 353  
Since 1 July heating degree days 2354  
Cooling Degree Days 0 0  
Month to date cooling degree days 0  
Year to date cooling degree days 215  
Moisture  
Dew Point 31 °F    
Average Humidity 96    
Maximum Humidity 100    
Minimum Humidity 93    
Precipitation  
Precipitation 0.02 in 0.04 in 0.44 in (1939)
Month to date precipitation 0.44  
Year to date precipitation 9.81  
Sea Level Pressure  
Sea Level Pressure 30.29 in    
Wind  
Wind Speed 3 mph (ENE)    
Max Wind Speed 9 mph    
Max Gust Speed -    
Visibility 7 miles    
Events Fog , Rain , Snow    
T = Trace of Precipitation, MM = Missing Value Source: NWS Daily Summary

Daily Weather History Graph

Daily Weather History Graph

Search for Another Location

Airport or City:

Trip Planner

Search our weather history database for the weather conditions in past years. The results will help you decide how hot, cold, wet, or windy it might be!

Date:

Astronomy

Dec. 09, 2012 Rise Set
Actual Time 7:20 AM PST 4:16 PM PST
Civil Twilight 6:47 AM PST 4:49 PM PST
Nautical Twilight 6:10 AM PST 5:26 PM PST
Astronomical Twilight 5:35 AM PST 6:01 PM PST
Moon 2:52 AM PST (12/9) 1:32 PM PST (12/9)
Length of Visible Light 10h 01m
Length of Day
8h 55m
Waning Crescent, 17% of the Moon is Illuminated
Dec 9
Waning Crescent
Dec 13
New
Dec 19
First Quarter
Dec 28
Full
Jan 4
Last Quarter

Hourly Weather History & Observations

Time (PST) Temp. Windchill Dew Point Humidity Pressure Visibility Wind Dir Wind Speed Gust Speed Precip Events Conditions
12:15 AM 32.0 °F 26.4 °F 30.2 °F 93% 30.21 in 0.5 mi West 5.8 mph - N/A Fog Light Freezing Fog
12:35 AM 32.0 °F 26.4 °F 30.2 °F 93% 30.21 in 0.5 mi West 5.8 mph - N/A Snow Light Snow
12:55 AM 32.0 °F 28.7 °F 30.2 °F 93% 30.22 in 0.8 mi West 3.5 mph - N/A Snow Light Snow
1:15 AM 32.0 °F 26.4 °F 30.2 °F 93% 30.22 in 1.8 mi West 5.8 mph - N/A Snow Light Snow
1:35 AM 32.0 °F 27.5 °F 30.2 °F 93% 30.21 in 1.2 mi WSW 4.6 mph - N/A   Overcast
1:55 AM 32.0 °F 27.5 °F 30.2 °F 93% 30.22 in 0.8 mi WSW 4.6 mph - N/A   Overcast
2:15 AM 32.0 °F 27.5 °F 30.2 °F 93% 30.23 in 0.8 mi WSW 4.6 mph - N/A   Overcast
2:35 AM 32.0 °F 28.7 °F 30.2 °F 93% 30.24 in 10.0 mi WSW 3.5 mph - N/A   Overcast
2:55 AM 32.0 °F 27.5 °F 30.2 °F 93% 30.25 in 10.0 mi West 4.6 mph - N/A   Overcast
3:15 AM 32.0 °F 26.4 °F 30.2 °F 93% 30.25 in 0.8 mi West 5.8 mph - N/A   Overcast
3:35 AM 32.0 °F 28.7 °F 30.2 °F 93% 30.24 in 1.2 mi WSW 3.5 mph - N/A   Overcast
3:55 AM 32.0 °F 28.7 °F 30.2 °F 93% 30.24 in 7.0 mi WSW 3.5 mph - N/A   Overcast
4:15 AM 32.0 °F 28.7 °F 30.2 °F 93% 30.25 in 10.0 mi West 3.5 mph - N/A   Overcast
4:35 AM 32.0 °F - 30.2 °F 93% 30.26 in 10.0 mi Calm Calm - N/A   Overcast
4:55 AM 32.0 °F - 30.2 °F 93% 30.27 in 10.0 mi Calm Calm - N/A   Overcast
5:15 AM 30.2 °F - 30.2 °F 100% 30.28 in 10.0 mi Calm Calm - N/A   Overcast
5:35 AM 30.2 °F - 30.2 °F 100% 30.28 in 10.0 mi Calm Calm - N/A   Overcast
5:55 AM 30.2 °F - 30.2 °F 100% 30.28 in 10.0 mi Calm Calm - N/A   Overcast
6:15 AM 30.2 °F - 30.2 °F 100% 30.29 in 10.0 mi Calm Calm - N/A   Overcast
6:35 AM 32.0 °F - 30.2 °F 93% 30.30 in 10.0 mi Calm Calm - N/A   Overcast
6:55 AM 32.0 °F - 30.2 °F 93% 30.30 in 10.0 mi Calm Calm - N/A   Overcast
7:15 AM 32.0 °F - 30.2 °F 93% 30.30 in 10.0 mi Calm Calm - N/A   Overcast
7:35 AM 32.0 °F - 30.2 °F 93% 30.31 in 10.0 mi Calm Calm - N/A   Overcast
7:55 AM 32.0 °F - 30.2 °F 93% 30.30 in 10.0 mi Calm Calm - N/A   Overcast
8:15 AM 32.0 °F - 30.2 °F 93% 30.33 in 10.0 mi Calm Calm - N/A   Overcast
8:35 AM 32.0 °F - 30.2 °F 93% 30.32 in 10.0 mi Calm Calm - N/A   Overcast
8:55 AM 32.0 °F - 30.2 °F 93% 30.34 in 10.0 mi Calm Calm - N/A   Overcast
9:15 AM 32.0 °F - 30.2 °F 93% 30.34 in 10.0 mi Calm Calm - N/A   Overcast
9:35 AM 32.0 °F - 30.2 °F 93% 30.34 in 10.0 mi Calm Calm - N/A   Overcast
9:55 AM 32.0 °F 28.7 °F 30.2 °F 93% 30.36 in 10.0 mi NW 3.5 mph - N/A   Overcast
10:15 AM 32.0 °F - 32.0 °F 100% 30.35 in 10.0 mi Calm Calm - N/A   Overcast
10:35 AM 32.0 °F - 32.0 °F 100% 30.35 in 10.0 mi Calm Calm - N/A   Overcast
10:55 AM 32.0 °F - 30.2 °F 93% 30.34 in 10.0 mi Calm Calm - N/A   Overcast
11:15 AM 32.0 °F - 30.2 °F 93% 30.34 in 10.0 mi Calm Calm - N/A   Overcast
11:35 AM 32.0 °F 28.7 °F 30.2 °F 93% 30.33 in 10.0 mi North 3.5 mph - N/A   Overcast
11:55 AM 32.0 °F 28.7 °F 30.2 °F 93% 30.32 in 10.0 mi East 3.5 mph - N/A   Overcast
12:15 PM 32.0 °F - 30.2 °F 93% 30.32 in 7.0 mi Calm Calm - N/A Snow Light Snow
12:35 PM 32.0 °F 28.7 °F 30.2 °F 93% 30.32 in 10.0 mi East 3.5 mph - N/A Snow Light Snow
12:55 PM 32.0 °F - 30.2 °F 93% 30.30 in 7.0 mi Calm Calm - N/A   Overcast
1:15 PM 32.0 °F - 30.2 °F 93% 30.30 in 10.0 mi Calm Calm - N/A   Mostly Cloudy
1:35 PM 32.0 °F - 30.2 °F 93% 30.30 in 10.0 mi Calm Calm - N/A   Overcast
1:55 PM 32.0 °F - 30.2 °F 93% 30.30 in 4.0 mi Calm Calm - N/A Snow Light Snow
2:15 PM 32.0 °F 27.5 °F 30.2 °F 93% 30.29 in 4.0 mi ENE 4.6 mph - N/A Snow Light Snow
2:35 PM 32.0 °F 24.8 °F 30.2 °F 93% 30.29 in 7.0 mi ENE 8.1 mph - N/A Snow Light Snow
2:55 PM 32.0 °F 26.4 °F 30.2 °F 93% 30.31 in 7.0 mi ENE 5.8 mph - N/A   Overcast
3:15 PM 32.0 °F 26.4 °F 30.2 °F 93% 30.31 in 10.0 mi ENE 5.8 mph - N/A   Overcast
3:35 PM 32.0 °F 25.6 °F 30.2 °F 93% 30.31 in 10.0 mi East 6.9 mph - N/A   Overcast
3:55 PM 32.0 °F 27.5 °F 30.2 °F 93% 30.30 in 5.0 mi East 4.6 mph - N/A   Overcast
4:15 PM 32.0 °F 26.4 °F 30.2 °F 93% 30.30 in 5.0 mi East 5.8 mph - N/A   Overcast
4:35 PM 32.0 °F 24.8 °F 32.0 °F 100% 30.29 in 4.0 mi East 8.1 mph - N/A Snow Light Snow
4:55 PM 32.0 °F 25.6 °F 32.0 °F 100% 30.29 in 4.0 mi East 6.9 mph - 0.01 in Snow Light Snow
5:15 PM 32.0 °F 26.4 °F 32.0 °F 100% 30.28 in 7.0 mi East 5.8 mph - N/A Snow Light Snow
5:35 PM 32.0 °F 24.2 °F 30.2 °F 93% 30.29 in 7.0 mi ENE 9.2 mph - N/A Snow Light Snow
5:55 PM 32.0 °F 24.8 °F 30.2 °F 93% 30.28 in 5.0 mi East 8.1 mph - N/A   Overcast
6:15 PM 32.0 °F 26.4 °F 32.0 °F 100% 30.29 in 4.0 mi East 5.8 mph - N/A   Overcast
6:35 PM 32.0 °F 25.6 °F 32.0 °F 100% 30.29 in 2.5 mi East 6.9 mph - N/A Snow Light Snow
6:55 PM 32.0 °F 24.2 °F 32.0 °F 100% 30.28 in 4.0 mi ENE 9.2 mph - 0.01 in Snow Light Snow
7:15 PM 32.0 °F 26.4 °F 32.0 °F 100% 30.29 in 5.0 mi ENE 5.8 mph - N/A   Overcast
7:35 PM 32.0 °F 27.5 °F 32.0 °F 100% 30.29 in 7.0 mi East 4.6 mph - N/A   Overcast
7:55 PM 32.0 °F 26.4 °F 32.0 °F 100% 30.28 in 7.0 mi ENE 5.8 mph - N/A   Overcast
8:15 PM 32.0 °F 27.5 °F 32.0 °F 100% 30.28 in 10.0 mi East 4.6 mph - N/A   Overcast
8:35 PM 32.0 °F 25.6 °F 32.0 °F 100% 30.27 in 10.0 mi East 6.9 mph - N/A   Overcast
8:55 PM 32.0 °F - 32.0 °F 100% 30.27 in 10.0 mi Calm Calm - N/A   Overcast
9:15 PM 32.0 °F 27.5 °F 32.0 °F 100% 30.27 in 10.0 mi East 4.6 mph - N/A   Overcast
9:35 PM 32.0 °F 27.5 °F 32.0 °F 100% 30.26 in 10.0 mi ENE 4.6 mph - N/A   Overcast
9:55 PM 32.0 °F 28.7 °F 32.0 °F 100% 30.27 in 7.0 mi ENE 3.5 mph - N/A   Overcast
10:15 PM 32.0 °F - 32.0 °F 100% 30.27 in 7.0 mi Calm Calm - N/A   Overcast
10:35 PM 32.0 °F 28.7 °F 32.0 °F 100% 30.29 in 5.0 mi ENE 3.5 mph - N/A   Overcast
10:55 PM 32.0 °F - 32.0 °F 100% 30.28 in 5.0 mi Calm Calm - N/A   Overcast
11:15 PM 32.0 °F - 32.0 °F 100% 30.27 in 10.0 mi Calm Calm - N/A Rain Light Rain
11:35 PM 32.0 °F 28.7 °F 32.0 °F 100% 30.26 in 10.0 mi ENE 3.5 mph - N/A   Overcast
11:55 PM 32.0 °F - 32.0 °F 100% 30.25 in 10.0 mi Calm Calm - N/A   Overcast